Location: Azul
(36.7830°S, 59.8500°W)
Time: 10:20:20
(UTC-03:00)

ISS - Pass Details

Date: 12 September 2019
Orbit: 411 x 421 km, 51.6° (Epoch: 18 September)

Event Time Altitude Azimuth Distance (km) Brightness Sun altitude
Rises 19:08:29 0° 244° (WSW) 2,387 1.4 -5.0°
Reaches altitude 10° 19:10:59 10° 261° (W) 1,512 0.8 -5.5°
Maximum altitude 19:13:30 20° 309° (NW) 1,050 -1.0 -6.0°
Drops below altitude 10° 19:16:01 10° 358° (N) 1,492 -0.9 -6.5°
Sets 19:18:27 0° 16° (NNE) 2,344 -0.1 -7.0°
